GAOFEN 11-05

导读 | 豆包AI

高分十一号05星(GAOFEN 11-05)是中国于2024年7月19日8时发射的光学遥感卫星,隶属于中国高分辨率对地观测系统。该卫星主要用于国土普查、城市规划、土地确权、路网设计、农作物估产和防灾减灾等领域,可为“一带一路”建设等提供信息支撑,进一步提升我国遥感观测能力。

基本信息
目录编号:
60249
目录名称:
GAOFEN 11-05
国际标识:
2024-130A
轨道中心:
EARTH
卫星名称:
GAOFEN 11-05
卫星全名:
GAOFEN 11-05
卫星状态:
在轨 (已飞行603 天)
发射日期:
2024-07-19 UTC
国别 :
中国 (CN)
星等 :
--
轨道信息
数据来源 国际轨道数据
星历时间: 2026-03-13T22:53:10+0800
10小时前
查看轨道信息
半长轴: 6872.401km
偏心率: 0.000767
轨道倾角: 97.405°
近地点辐角 90.464°
升交点赤经 152.220°
平近点角 269.748°
近地点: 488.992km
远地点: 499.536km
周期: 94.498分钟
每日圈数: 15.238425
详细信息
使用方式:
暂无
2D轨道图
3D轨道图
轨道高度分析图
轨道倾角分析图
轨道综合分析图
查看轨道综合分析图